Regional Weather Roundup
Issued by NWS Sioux Falls, SD

Home | Current Version | Previous Version | Graphics & Text | Print | Product List | Glossary Off
Versions: 1 2 3 4 5 6 7 8 9 10 11 12 13 14 15 16 17 18 19 20 21 22 23 24 25 26 27 28 29 30 31 32 33 34 35 36 37 38 39 40 41 42 43 44 45 46 47 48 49 50

000
ASUS43 KFSD 042302
RWRFSD

WEATHER ROUNDUP FOR SE SOUTH DAKOTA/SW MINNESOTA/NW IOWA
NATIONAL WEATHER SERVICE SIOUX FALLS SD
600 PM CDT MON MAY 04 2015

NOTE: "FAIR" INDICATES FEW OR NO CLOUDS BELOW 12,000 FEET WITH NO
SIGNIFICANT WEATHER AND OR OBSTRUCTIONS TO VISIBILITY.


SDZ038>040-050-052>070-050000-
SOUTHEAST SOUTH DAKOTA

CITY           SKY/WX    TMP DP  RH WIND       PRES   REMARKS
BROOKINGS      PTSUNNY   70  27  19 NE9       30.15S
CHAMBERLAIN    NOT AVBL
HURON          CLOUDY    71  25  17 E10       30.13S
MADISON        FAIR      70  23  17 E15       30.14S
MITCHELL       CLOUDY    72  26  18 SE12      30.12S
SIOUX FALLS    CLOUDY    70  28  21 E8        30.13R
WINNER         CLOUDY    68  25  19 NE10      30.12S
YANKTON        CLOUDY    66  41  39 SE16      30.10R
$$

MNZ071-072-080-081-089-090-097-098-050000-
SOUTHWEST MINNESOTA

CITY           SKY/WX    TMP DP  RH WIND       PRES   REMARKS
FAIRMONT       PTSUNNY   70  27  19 NE12      30.15S
JACKSON        CLOUDY    68  21  17 NE13      30.16S
LUVERNE        CLOUDY    72  25  17 E13       30.14S
MARSHALL       PTSUNNY   70  25  18 E10       30.15R
MONTEVIDEO     PTSUNNY   72  27  18 E8G18     30.17R
REDWOOD FALLS  PTSUNNY   73  26  17 E10G17    30.14S
TRACY          PTSUNNY   72  29  20 E10       30.15R
WORTHINGTON    CLOUDY    66  28  24 E14       30.16R
$$

IAZ001>003-012>014-020>022-031-032-NEZ013-014-SDZ071-050000-
NORTHWEST IOWA

CITY           SKY/WX    TMP DP  RH WIND       PRES   REMARKS
DENISON        LGT RAIN  57  57 100 NE13      30.11R
ESTHERVILLE    PTSUNNY   67  35  30 E14       30.14S
LE MARS        CLOUDY    68  43  40 SE15G21   30.12F
SIOUX CITY     LGT RAIN  61  49  64 SE14      30.12S
SPENCER        CLOUDY    68  36  30 E14       30.14S
$$

ABBREVIATIONS USED IN REMARKS
   TC - TEMPERATURE IN CELSIUS
  WCI - WIND CHILL INDEX
   HX - HEAT INDEX
  VSB - VISIBILITY




USA.gov is the U.S. government's official web portal to all federal, state and local government web resources and services.